Location: Oberwangen
(47.4286°N, 8.9679°E)
Time: 12:33:29
(UTC+00:00)

Cosmos 1953 Rocket - Pass Details

Date: 31 October 2021
Orbit: 604 x 635 km, 82.5° (Epoch: 26 November)

Event Time Altitude Azimuth Distance (km) Brightness Sun altitude
Rises 17:06:47 0° 359° (N) 2,938 6.9 -10.3°
Reaches altitude 10° 17:09:17 10° 10° (N) 2,022 6.0 -10.8°
Maximum altitude 17:13:14 30° 72° (ENE) 1,140 4.4 -11.4°
Drops below altitude 10° 17:17:07 10° 134° (SE) 1,992 5.8 -12.1°
Sets 17:19:33 0° 145° (SE) 2,888 6.7 -12.5°
